�������l�o���
Date,Time,MP-1(��Sv/h),MP-2(��Sv/h),MP-3(��Sv/h),MP-4(��Sv/h),MP-5(��Sv/h),MP-6(��Sv/h),MP-7(��Sv/h),MP-8(��Sv/h),����,����(m/s),���J
2022/11/20,00:00,0.587,0.854,0.535,1.084,0.755,0.339,0.599,0.565,�k��,6.6,��
2022/11/20,00:10,0.589,0.853,0.534,1.083,0.753,0.339,0.599,0.564,�k��,7.0,��
2022/11/20,00:20,0.587,0.854,0.534,1.081,0.752,0.339,0.601,0.564,�k��,6.6,��
2022/11/20,00:30,0.588,0.853,0.534,1.083,0.753,0.340,0.601,0.564,�k��,6.4,��
2022/11/20,00:40,0.588,0.854,0.535,1.082,0.753,0.338,0.599,0.564,�k��,6.7,��
2022/11/20,00:50,0.588,0.853,0.537,1.085,0.755,0.338,0.599,0.564,�k��,6.2,��
2022/11/20,01:00,0.588,0.856,0.535,1.083,0.754,0.338,0.599,0.564,�k��,5.8,��
2022/11/20,01:10,0.587,0.854,0.534,1.083,0.754,0.338,0.599,0.565,�k��,6.0,��
2022/11/20,01:20,0.588,0.852,0.535,1.083,0.757,0.338,0.600,0.565,�k��,6.0,��
2022/11/20,01:30,0.588,0.852,0.533,1.082,0.752,0.338,0.599,0.564,�k��,5.6,��
2022/11/20,01:40,0.586,0.852,0.533,1.081,0.753,0.339,0.599,0.565,�k��,6.4,��
2022/11/20,01:50,0.588,0.853,0.533,1.084,0.753,0.338,0.599,0.565,�k��,6.4,��
2022/11/20,02:00,0.588,0.852,0.533,1.081,0.753,0.339,0.599,0.564,�k��,6.1,��
2022/11/20,02:10,0.587,0.853,0.534,1.083,0.754,0.339,0.598,0.565,�k�k��,6.1,��
2022/11/20,02:20,0.588,0.855,0.535,1.082,0.754,0.339,0.601,0.565,�k�k��,6.4,��
2022/11/20,02:30,0.588,0.853,0.533,1.083,0.755,0.339,0.602,0.565,�k�k��,6.5,��
2022/11/20,02:40,0.587,0.855,0.533,1.083,0.753,0.338,0.602,0.563,�k�k��,6.9,��
2022/11/20,02:50,0.589,0.853,0.535,1.083,0.753,0.340,0.600,0.564,�k�k��,7.1,��
2022/11/20,03:00,0.589,0.855,0.535,1.083,0.753,0.339,0.600,0.564,�k�k��,7.3,��
2022/11/20,03:10,0.588,0.854,0.535,1.082,0.754,0.341,0.599,0.566,�k�k��,7.0,��
2022/11/20,03:20,0.588,0.853,0.535,1.083,0.753,0.339,0.598,0.565,�k��,6.9,��
2022/11/20,03:30,0.587,0.854,0.536,1.082,0.754,0.339,0.599,0.565,�k��,6.7,��
2022/11/20,03:40,0.588,0.854,0.536,1.085,0.754,0.339,0.600,0.563,�k��,5.9,��
2022/11/20,03:50,0.588,0.853,0.535,1.082,0.755,0.338,0.601,0.563,�k��,6.0,��
2022/11/20,04:00,0.588,0.853,0.535,1.083,0.755,0.339,0.599,0.564,�k��,6.4,��
2022/11/20,04:10,0.589,0.856,0.535,1.082,0.751,0.339,0.601,0.564,�k�k��,5.8,��
2022/11/20,04:20,0.587,0.852,0.534,1.082,0.753,0.338,0.600,0.564,�k��,6.1,��
2022/11/20,04:30,0.589,0.853,0.536,1.084,0.754,0.339,0.601,0.564,�k��,6.0,��
2022/11/20,04:40,0.588,0.852,0.534,1.083,0.755,0.339,0.601,0.564,�k��,5.6,��
2022/11/20,04:50,0.589,0.854,0.535,1.082,0.754,0.339,0.600,0.566,�k��,6.0,��
2022/11/20,05:00,0.589,0.854,0.533,1.081,0.753,0.339,0.600,0.566,�k�k��,6.7,��
2022/11/20,05:10,0.589,0.853,0.537,1.083,0.754,0.340,0.601,0.564,�k�k��,6.0,��
2022/11/20,05:20,0.588,0.853,0.535,1.082,0.753,0.338,0.599,0.564,�k�k��,5.8,��
2022/11/20,05:30,0.589,0.856,0.535,1.085,0.753,0.340,0.600,0.564,�k��,5.8,��
2022/11/20,05:40,0.589,0.853,0.536,1.082,0.752,0.340,0.600,0.565,�k��,6.3,��
2022/11/20,05:50,0.589,0.854,0.536,1.083,0.755,0.339,0.599,0.565,�k��,5.6,��
2022/11/20,06:00,0.587,0.854,0.536,1.084,0.755,0.339,0.599,0.565,�k��,5.3,��
2022/11/20,06:10,0.589,0.855,0.535,1.083,0.754,0.339,0.600,0.564,�k��,5.6,��
2022/11/20,06:20,0.589,0.855,0.537,1.082,0.753,0.338,0.598,0.564,�k��,5.7,��
2022/11/20,06:30,0.589,0.853,0.536,1.083,0.753,0.338,0.600,0.565,�k��,5.5,��
2022/11/20,06:40,0.589,0.853,0.534,1.083,0.754,0.341,0.599,0.565,�k��,5.2,��
2022/11/20,06:50,0.589,0.854,0.535,1.083,0.752,0.339,0.599,0.565,�k��,5.0,��
2022/11/20,07:00,0.589,0.855,0.535,1.079,0.752,0.339,0.598,0.564,�k��,4.5,��
2022/11/20,07:10,0.588,0.854,0.535,1.083,0.753,0.339,0.600,0.565,�k��,3.6,��
2022/11/20,07:20,0.589,0.854,0.536,1.083,0.752,0.338,0.598,0.564,�k��,3.8,��
2022/11/20,07:30,0.590,0.855,0.535,1.082,0.752,0.340,0.598,0.564,�k��,3.9,��
2022/11/20,07:40,0.590,0.854,0.534,1.083,0.752,0.339,0.600,0.565,�k��,4.0,��
2022/11/20,07:50,0.588,0.855,0.537,1.084,0.754,0.338,0.600,0.566,�k��,4.3,��
2022/11/20,08:00,0.588,0.856,0.537,1.081,0.754,0.339,0.601,0.565,�k��,4.6,��
2022/11/20,08:10,0.589,0.856,0.536,1.084,0.753,0.339,0.598,0.566,�k��,4.1,��
2022/11/20,08:20,0.588,0.854,0.535,1.083,0.754,0.339,0.599,0.564,�k��,4.3,��
2022/11/20,08:30,0.587,0.855,0.534,1.084,0.754,0.339,0.599,0.565,�k��,4.3,��
2022/11/20,08:40,0.588,0.854,0.536,1.081,0.756,0.339,0.599,0.564,�k��,3.8,��
2022/11/20,08:50,0.589,0.853,0.536,1.082,0.754,0.340,0.598,0.565,�k�k��,4.7,��
2022/11/20,09:00,0.589,0.855,0.537,1.083,0.756,0.339,0.599,0.566,�k�k��,4.4,��
2022/11/20,09:10,0.590,0.855,0.536,1.083,0.754,0.338,0.598,0.565,�k�k��,5.1,��
2022/11/20,09:20,0.590,0.852,0.534,1.083,0.753,0.340,0.599,0.565,�k�k��,3.7,��
2022/11/20,09:30,0.588,0.854,0.535,1.085,0.756,0.339,0.597,0.565,�k�k��,2.6,��
2022/11/20,09:40,0.592,0.854,0.536,1.083,0.756,0.339,0.596,0.565,�k�k��,4.3,��
2022/11/20,09:50,0.590,0.854,0.535,1.083,0.755,0.341,0.597,0.565,�k�k��,2.3,��
2022/11/20,10:00,0.591,0.854,0.537,1.081,0.755,0.339,0.597,0.566,�k�k��,2.9,��
2022/11/20,10:10,0.590,0.855,0.538,1.083,0.756,0.340,0.597,0.566,�k�k��,3.1,��
2022/11/20,10:20,0.592,0.853,0.538,1.083,0.756,0.339,0.597,0.565,�k�k��,2.9,��
2022/11/20,10:30,0.591,0.853,0.536,1.083,0.756,0.340,0.599,0.566,�k,2.3,��
2022/11/20,10:40,0.590,0.854,0.537,1.083,0.755,0.339,0.598,0.565,�k,3.0,��
2022/11/20,10:50,0.588,0.851,0.537,1.086,0.755,0.337,0.599,0.567,�k,3.8,��
2022/11/20,11:00,0.590,0.854,0.536,1.083,0.754,0.338,0.598,0.566,�k,4.3,��
2022/11/20,11:10,0.588,0.852,0.536,1.082,0.755,0.339,0.598,0.564,�k�k��,3.9,��
2022/11/20,11:20,0.589,0.852,0.536,1.083,0.753,0.339,0.598,0.566,�k,2.2,��
2022/11/20,11:30,0.588,0.852,0.535,1.083,0.751,0.339,0.597,0.565,�k,3.4,��
2022/11/20,11:40,0.588,0.849,0.536,1.085,0.753,0.339,0.599,0.564,�k�k��,3.7,��
2022/11/20,11:50,0.588,0.851,0.535,1.082,0.754,0.339,0.598,0.563,�k�k��,3.3,��
2022/11/20,12:00,0.588,0.852,0.536,1.083,0.752,0.339,0.598,0.564,�k�k��,3.2,��
2022/11/20,12:10,0.588,0.853,0.537,1.084,0.752,0.338,0.598,0.563,�k�k��,2.6,��
2022/11/20,12:20,0.588,0.853,0.537,1.085,0.753,0.338,0.597,0.564,�k,2.9,��
2022/11/20,12:30,0.589,0.853,0.536,1.082,0.752,0.337,0.597,0.565,�k�k��,2.3,��
2022/11/20,12:40,0.588,0.853,0.536,1.083,0.754,0.337,0.599,0.563,�k�k��,2.3,��
2022/11/20,12:50,0.588,0.853,0.538,1.084,0.754,0.339,0.598,0.564,�k�k��,2.9,��
2022/11/20,13:00,0.589,0.854,0.537,1.084,0.756,0.337,0.598,0.565,�k,1.7,��
2022/11/20,13:10,0.589,0.853,0.536,1.085,0.753,0.338,0.597,0.564,�k,1.7,��
2022/11/20,13:20,0.589,0.852,0.536,1.084,0.753,0.340,0.598,0.564,�k�k��,2.3,��
2022/11/20,13:30,0.588,0.854,0.535,1.085,0.753,0.339,0.599,0.564,�k�k��,2.3,��
2022/11/20,13:40,0.589,0.854,0.536,1.083,0.753,0.339,0.599,0.563,�k�k��,1.5,��
2022/11/20,13:50,0.589,0.853,0.537,1.083,0.754,0.340,0.600,0.563,�k,1.7,��
2022/11/20,14:00,0.590,0.853,0.536,1.082,0.754,0.339,0.598,0.565,�k�k��,1.9,��
2022/11/20,14:10,0.590,0.855,0.537,1.086,0.754,0.338,0.598,0.565,�k,1.9,��
2022/11/20,14:20,0.590,0.854,0.535,1.081,0.755,0.337,0.599,0.566,�k,1.7,��
2022/11/20,14:30,0.592,0.855,0.537,1.084,0.755,0.340,0.598,0.565,�k,2.0,��
2022/11/20,14:40,0.590,0.855,0.536,1.083,0.756,0.339,0.599,0.566,�k,1.7,��
2022/11/20,14:50,0.590,0.855,0.537,1.082,0.756,0.338,0.599,0.566,�k,1.9,��
2022/11/20,15:00,0.590,0.856,0.536,1.082,0.756,0.339,0.598,0.565,�k,2.2,��
2022/11/20,15:10,0.590,0.855,0.537,1.085,0.754,0.339,0.599,0.565,�k,1.7,��
2022/11/20,15:20,0.592,0.856,0.536,1.084,0.754,0.340,0.597,0.566,�k,1.5,��
2022/11/20,15:30,0.591,0.853,0.535,1.084,0.755,0.340,0.599,0.565,�k�k��,1.4,��
2022/11/20,15:40,0.591,0.856,0.534,1.086,0.754,0.339,0.598,0.566,�k�k��,1.9,��
2022/11/20,15:50,0.591,0.857,0.535,1.085,0.754,0.340,0.597,0.566,�k�k��,2.0,��
2022/11/20,16:00,0.589,0.855,0.535,1.082,0.756,0.340,0.596,0.565,�k�k��,2.0,��
2022/11/20,16:10,0.590,0.855,0.537,1.083,0.755,0.340,0.598,0.566,�k�k��,1.9,��
2022/11/20,16:20,0.588,0.855,0.535,1.084,0.755,0.339,0.599,0.566,�k�k��,1.4,��
2022/11/20,16:30,0.586,0.856,0.537,1.082,0.755,0.339,0.599,0.565,���k��,1.1,��
2022/11/20,16:40,0.590,0.856,0.536,1.084,0.755,0.339,0.598,0.565,�k��,1.1,��
2022/11/20,16:50,0.589,0.857,0.535,1.082,0.756,0.338,0.598,0.566,���k��,1.1,��
2022/11/20,17:00,0.590,0.854,0.536,1.084,0.755,0.340,0.599,0.565,���k��,1.1,��
2022/11/20,17:10,0.588,0.855,0.535,1.083,0.757,0.340,0.598,0.564,�k��,0.9,��
2022/11/20,17:20,0.590,0.854,0.535,1.082,0.756,0.339,0.597,0.565,���k��,1.7,��
2022/11/20,17:30,0.590,0.853,0.536,1.082,0.753,0.338,0.598,0.566,���k��,1.2,��
2022/11/20,17:40,0.589,0.855,0.535,1.083,0.754,0.340,0.601,0.565,���k��,2.0,��
2022/11/20,17:50,0.589,0.856,0.535,1.082,0.755,0.339,0.599,0.564,��,1.1,��
2022/11/20,18:00,0.591,0.855,0.534,1.081,0.756,0.340,0.598,0.566,��,1.1,��
2022/11/20,18:10,0.590,0.855,0.537,1.081,0.756,0.339,0.600,0.565,��,0.8,��
2022/11/20,18:20,0.591,0.853,0.535,1.081,0.754,0.340,0.600,0.565,��,0.9,��
2022/11/20,18:30,0.587,0.855,0.536,1.082,0.757,0.339,0.599,0.564,���쐼,1.2,��
2022/11/20,18:40,0.591,0.855,0.534,1.085,0.757,0.339,0.599,0.564,-,CALM,��
2022/11/20,18:50,0.589,0.854,0.535,1.082,0.755,0.339,0.598,0.565,-,CALM,��
2022/11/20,19:00,0.590,0.853,0.535,1.084,0.756,0.338,0.598,0.565,�k��,0.9,��
2022/11/20,19:10,0.588,0.853,0.535,1.084,0.756,0.339,0.599,0.565,-,CALM,��
2022/11/20,19:20,0.589,0.853,0.536,1.082,0.755,0.339,0.599,0.564,�k�k��,0.6,��
2022/11/20,19:30,0.591,0.854,0.536,1.083,0.756,0.340,0.598,0.564,-,CALM,��
2022/11/20,19:40,0.590,0.852,0.535,1.083,0.754,0.340,0.599,0.564,��,1.1,��
2022/11/20,19:50,0.590,0.855,0.536,1.082,0.756,0.338,0.599,0.564,-,CALM,��
2022/11/20,20:00,0.588,0.851,0.535,1.081,0.755,0.339,0.597,0.565,-,CALM,�L
2022/11/20,20:10,0.589,0.854,0.536,1.083,0.753,0.339,0.599,0.564,���k��,0.6,�L
2022/11/20,20:20,0.589,0.855,0.536,1.081,0.756,0.339,0.598,0.565,�k��,0.6,�L
2022/11/20,20:30,0.590,0.855,0.535,1.082,0.755,0.339,0.598,0.565,�k�k��,2.3,��
2022/11/20,20:40,0.588,0.856,0.537,1.083,0.754,0.340,0.598,0.565,�k�k��,2.3,�L
2022/11/20,20:50,0.590,0.855,0.534,1.086,0.754,0.338,0.600,0.565,�k��,2.6,��
2022/11/20,21:00,0.589,0.854,0.536,1.081,0.756,0.340,0.599,0.565,�k��,1.7,��
2022/11/20,21:10,0.590,0.854,0.534,1.084,0.756,0.339,0.598,0.564,��,2.0,��
2022/11/20,21:20,0.588,0.853,0.536,1.083,0.753,0.339,0.597,0.565,���쐼,2.3,��
2022/11/20,21:30,0.589,0.854,0.534,1.081,0.754,0.340,0.599,0.565,���쐼,0.6,��
2022/11/20,21:40,0.590,0.853,0.535,1.081,0.754,0.337,0.599,0.566,���k��,0.8,��
2022/11/20,21:50,0.588,0.853,0.535,1.084,0.753,0.340,0.599,0.566,���k��,0.9,��
2022/11/20,22:00,0.590,0.854,0.536,1.080,0.754,0.338,0.598,0.565,�k�k��,0.9,��
2022/11/20,22:10,0.589,0.854,0.536,1.085,0.754,0.339,0.598,0.564,�k��,2.5,��
2022/11/20,22:20,0.588,0.854,0.535,1.082,0.755,0.340,0.600,0.565,���k��,2.0,��
2022/11/20,22:30,0.590,0.854,0.536,1.086,0.756,0.339,0.598,0.564,�k��,1.5,�L
2022/11/20,22:40,0.590,0.857,0.536,1.081,0.755,0.340,0.599,0.567,�k��,2.0,�L
2022/11/20,22:50,0.590,0.855,0.538,1.084,0.756,0.338,0.599,0.565,�k��,2.6,�L
2022/11/20,23:00,0.589,0.854,0.536,1.085,0.753,0.339,0.599,0.565,�k,2.6,�L
2022/11/20,23:10,0.590,0.856,0.535,1.082,0.754,0.339,0.598,0.565,�k��,2.8,�L
2022/11/20,23:20,0.590,0.855,0.537,1.083,0.755,0.340,0.600,0.566,�k�k��,2.3,�L
2022/11/20,23:30,0.591,0.854,0.537,1.083,0.755,0.341,0.600,0.564,�k�k��,2.9,�L
2022/11/20,23:40,0.591,0.855,0.537,1.083,0.755,0.342,0.599,0.567,�k��,2.6,�L
2022/11/20,23:50,0.591,0.853,0.537,1.085,0.756,0.341,0.597,0.564,�k��,2.6,�L
